G4YTK Weather Reports


Display with metric or nautical units.
time (UTC)temp
F
wind
direction
speed
MPH
gust
MPH
rain 1hr
in
rain 24hr
in
rain mn
in
humidity
%
barometer
mb
20260902004501 57 218 2.0 6.0 0.00 0.00 0.00 65 1019.9
20260902003002 57 214 2.0 6.0 0.00 0.00 0.00 65 1020.1
20260902001501 57 257 1.0 4.0 0.00 0.00 0.00 65 1020.2
20260901233004 57 213 1.0 5.0 0.00 0.00 0.00 65 1020.1
20260901231503 57 360 2.0 5.0 0.00 0.00 0.00 65 1020.2
20260901230012 57 204 1.0 4.0 0.00 0.00 0.00 65 1020.3
20260901224502 57 360 1.0 4.0 0.00 0.00 0.00 65 1020.4
20260901223006 58 360 1.0 5.0 0.00 0.00 0.00 65 1020.2
20260901220008 59 360 2.0 6.0 0.00 0.00 0.00 65 1020.3
20260901211503 60 229 4.0 9.0 0.00 0.00 0.00 65 1020.6
20260901210009 60 248 3.0 8.0 0.00 0.00 0.00 65 1020.5
20260901204504 60 360 1.0 4.0 0.00 0.00 0.00 65 1020.5
20260901203007 60 360 1.0 4.0 0.00 0.00 0.00 65 1020.5
20260901201502 61 360 0.0 1.0 0.00 0.00 0.00 65 1020.5
20260901200006 61 360 3.0 6.0 0.00 0.00 0.00 65 1020.5
20260901194504 61 286 4.0 8.0 0.00 0.00 0.00 65 1020.4
20260901193004 61 241 3.0 9.0 0.00 0.00 0.00 65 1020.3
20260901191504 62 266 5.0 10.0 0.00 0.00 0.00 65 1020.2
20260901184503 62 277 4.0 11.0 0.00 0.00 0.00 65 1020.3
20260901183004 62 248 4.0 12.0 0.00 0.00 0.00 65 1020.2
20260901180007 62 360 2.0 7.0 0.00 0.00 0.00 65 1020.1
20260901174504 63 360 7.0 14.0 0.00 0.00 0.00 65 1020.2
20260901173006 66 259 6.0 12.0 0.00 0.00 0.00 100 1019.8
20260901171504 66 264 7.0 13.0 0.00 0.00 0.00 100 1020.1
20260901170009 66 294 7.0 15.0 0.00 0.00 0.00 100 1019.8
20260901164503 67 273 4.0 11.0 0.00 0.00 0.00 100 1019.6
20260901163004 69 319 7.0 14.0 0.00 0.00 0.00 100 1020.0
20260901161506 68 224 7.0 14.0 0.00 0.00 0.00 100 1020.0
20260901160006 68 235 7.0 16.0 0.00 0.00 0.00 100 1019.8
20260901154502 66 257 8.0 17.0 0.00 0.00 0.00 100 1019.9
20260901153004 67 263 6.0 15.0 0.00 0.00 0.00 100 1020.1
20260901144502 67 288 8.0 17.0 0.00 0.00 0.00 100 1020.1
20260901143003 68 277 7.0 13.0 0.00 0.00 0.00 100 1020.2
20260901134503 69 256 9.0 16.0 0.00 0.00 0.00 100 1020.1
20260901131504 69 242 7.0 16.0 0.00 0.00 0.00 100 1020.3
20260901130007 68 279 7.0 12.0 0.00 0.00 0.00 100 1020.3
20260901124503 69 247 8.0 15.0 0.00 0.00 0.00 100 1020.3
20260901123002 69 310 5.0 13.0 0.00 0.00 0.00 100 1020.5
20260901121501 69 269 7.0 14.0 0.00 0.00 0.00 100 1020.6
20260901114503 68 275 9.0 15.0 0.00 0.00 0.00 100 1020.4
20260901113002 69 229 5.0 12.0 0.00 0.00 0.00 100 1020.4
20260901110006 67 273 6.0 12.0 0.00 0.00 0.00 100 1020.5
20260901104502 66 223 7.0 15.0 0.00 0.00 0.00 100 1020.7
20260901103002 65 244 7.0 15.0 0.00 0.00 0.00 65 1020.8
20260901101502 65 265 8.0 16.0 0.00 0.00 0.00 65 1020.5
20260901100006 64 277 7.0 14.0 0.00 0.00 0.00 65 1021.0
20260901094501 64 252 5.0 12.0 0.00 0.00 0.00 65 1021.0
20260901093003 64 288 4.0 12.0 0.00 0.00 0.00 65 1021.2
20260901091502 63 287 5.0 8.0 0.00 0.00 0.00 65 1021.1
20260901083004 61 231 3.0 9.0 0.00 0.00 0.00 65 1021.1
20260901081501 60 270 4.0 9.0 0.00 0.00 0.00 65 1021.1
20260901080007 60 261 5.0 9.0 0.00 0.00 0.00 65 1021.1
20260901073001 55 209 1.0 3.0 0.00 0.00 0.00 65 1020.9
20260901071501 53 360 1.0 4.0 0.00 0.00 0.00 65 1021.0
20260901070007 52 208 1.0 4.0 0.00 0.00 0.00 65 1020.8
20260901064502 51 360 0.0 3.0 0.00 0.01 0.00 65 1020.7
20260901063003 50 271 0.0 0.0 0.00 0.01 0.00 65 1020.6
20260901061501 49 271 0.0 0.0 0.00 0.01 0.00 65 1020.5
20260901060005 49 271 0.0 0.0 0.00 0.01 0.00 65 1020.4
20260901054501 49 271 0.0 0.0 0.00 0.01 0.00 65 1020.3
20260901053002 49 272 0.0 0.0 0.00 0.01 0.00 65 1020.3
20260901050004 50 271 0.0 0.0 0.00 0.01 0.00 65 1020.3
20260901044502 50 271 0.0 0.0 0.00 0.01 0.00 65 1020.1
20260901043002 51 271 2.0 4.0 0.00 0.01 0.00 65 1020.1
20260901041501 51 271 3.0 4.0 0.00 0.01 0.00 65 1020.0
20260901040004 50 275 2.0 6.0 0.00 0.01 0.00 65 1020.0
20260901034502 50 257 0.0 3.0 0.00 0.01 0.00 65 1020.0
20260901033004 50 256 0.0 0.0 0.00 0.01 0.00 65 1019.9
20260901031505 51 256 0.0 1.0 0.00 0.01 0.00 65 1019.9
20260901030007 51 254 1.0 3.0 0.00 0.01 0.00 65 1020.0
20260901024501 51 252 0.0 3.0 0.00 0.01 0.00 65 1019.8
20260901023001 52 252 0.0 0.0 0.00 0.01 0.00 65 1019.9
20260901021501 52 360 0.0 0.0 0.00 0.01 0.00 65 1020.0
20260901014501 52 360 0.0 1.0 0.00 0.02 0.00 65 1020.0
20260901013003 52 360 1.0 3.0 0.00 0.02 0.00 65 1020.1
20260901011502 52 360 3.0 5.0 0.00 0.02 0.00 65 1020.1
20260901010004 52 360 0.0 3.0 0.00 0.02 0.00 65 1020.0